Home   Weather   São Tomé   Past weeks

Flag for Sao Tome and Principe Past Weather in São Tomé, Sao Tome and Principe — Yesterday and Last 2 Weeks

Now
75 °F

Partly sunny.


Feels Like: 75 °F
Forecast: 79 / 86 °F
Wind: 5 mph from Southwest

Location: S. Tome

Current Time: Feb 25, 2017 at 7:07:10 am

Latest Report: Feb 25, 2017 at 6:00 am


Visibility: N/A

Pressure: 29.86 "Hg

Humidity: 83%

Dew Point: 70 °F

Location of São ToméLocation

Past Weather in São Tomé — Graph

°F

São Tomé Temperature Yesterday

Maximum temperature yesterday: 82 °F (at 12:00 pm)
Minimum temperature yesterday: 79 °F (at 12:00 am)
Average temperature yesterday: 81 °F

High & Low Weather Summary for the Past Weeks

 TemperatureHumidityPressure
High90 °F (Feb 11, 11:00 am)94% (Feb 11, 6:00 am)29.98 "Hg (Feb 11, 6:00 am)
Low73 °F (Feb 13, 6:00 am)63% (Feb 16, 11:00 am)29.71 "Hg (Feb 12, 3:00 pm)
Average82 °F83%29.85 "Hg
* Reported Feb 10 7:00 am — Feb 25 5:00 am, São Tomé, Weather by CustomWeather, © 2017

Note: Actual official high and low records may vary slightly from our data, if they occured in-between our weather recording intervals... More about our weather records

Advertising

São Tomé Weather History for the Previous 24 Hours

Scroll right to see more
 ConditionsComfort  
Time TempWeatherWind HumidityBarometerVisibility
5:00 am
Sat, Feb 25
75 °FPassing clouds.5 mph78%29.83 "HgN/A
3:00 am77 °FPassing clouds.3 mph83%29.83 "HgN/A
2:00 am77 °FPassing clouds.5 mph83%29.83 "HgN/A
12:00 am77 °FPassing clouds.2 mph89%29.83 "HgN/A
11:00 pm
Fri, Feb 24
81 °FPassing clouds.5 mph84%29.86 "HgN/A
10:00 pm81 °FPassing clouds.14 mph89%29.89 "HgN/A
9:00 pm81 °FPassing clouds.14 mph89%29.86 "HgN/A
7:00 pm81 °FPassing clouds.14 mph79%29.86 "HgN/A
6:00 pm81 °FPartly cloudy.18 mph84%29.83 "HgN/A
5:00 pm82 °FPartly sunny.18 mph79%29.83 "HgN/A
4:00 pm82 °FPartly sunny.18 mph84%29.80 "HgN/A
3:00 pm82 °FPartly sunny.7 mph84%29.80 "HgN/A
2:00 pm82 °FPartly sunny.7 mph84%29.80 "HgN/A
1:00 pm82 °FPartly sunny.5 mph84%29.80 "HgN/A
12:00 pm82 °FPartly sunny.No wind79%29.83 "HgN/A
10:00 am79 °FThunderstorms. Partly sunny.14 mph94%29.89 "Hg5 mi
9:00 am79 °FThunderstorms. Partly sunny.8 mph94%29.92 "HgN/A
8:00 am79 °FThunderstorms. Partly sunny.5 mph89%29.89 "HgN/A
7:00 am79 °FThunderstorms. Partly sunny.7 mph89%29.86 "HgN/A
Weather by CustomWeather, © 2017

See weather overviewHow to use our weather pages